Location: ?????
(42.1113°N, 44.7831°E)
Time: 17:59:39
(UTC+00:00)

Daily predictions for brighter satellites

Satellite Brightness Start Highest point End
(mag) Time Altitude Azimuth Time Altitude Azimuth Time Altitude Azimuth
Nadezhda 1 Rocket 4.3 15:02:48 10° N 15:09:06 78° W 15:15:28 10° S
Cosmos 2297 Rocket 2.8 15:04:40 10° NNW 15:10:16 63° WSW 15:15:49 10° S
Cosmos 1709 Rocket 4.0 15:06:12 10° S 15:12:16 67° E 15:18:26 10° NNE
Cosmos 2228 Rocket 3.5 15:10:15 10° N 15:14:35 43° ENE 15:18:51 10° SSE
Meteor 2-6 Rocket 4.2 15:09:22 10° N 15:15:09 83° E 15:20:43 10° S
Cosmos 1862 3.3 15:11:21 10° S 15:15:21 85° E 15:19:24 10° N
CZ-2C R/B 3.6 15:12:13 10° NE 15:16:44 25° E 15:21:09 10° SSE
Cosmos 2181 Rocket 4.3 15:11:14 10° N 15:17:27 47° ENE 15:23:35 10° SSE
Gbstr 26 Del rocket 3.5 15:14:57 10° SSW 15:18:58 46° SE 15:23:49 10° ENE
CZ-2C R/B 3.4 15:14:21 10° SSE 15:20:11 89° WSW 15:25:56 10° NNW
Cosmos 1271 Rocket 4.3 15:19:33 10° NNE 15:21:46 15° ENE 15:23:58 10° ESE
CZ-2D R/B 3.4 15:19:41 10° S 15:23:28 77° WSW 15:27:17 10° NNW
Cosmos 1331 Rocket 4.4 15:19:00 10° S 15:23:58 44° ESE 15:28:57 10° NNE
CSL-04 Rocket 4.4 15:19:09 10° SE 15:24:03 33° ENE 15:28:58 10° N
IRIS 4.2 15:22:02 10° WSW 15:25:01 49° SSE 15:27:02 13° E
FALCON 9 DEB 2.9 15:22:39 10° SW 15:25:49 84° SE 15:29:00 10° NE
CZ-4 R/B 4.5 15:22:44 10° SSE 15:26:54 89° W 15:31:05 10° NNW
Cosmos 2084 3.4 15:23:06 10° SSW 15:27:16 74° SE 15:31:34 10° NE
HJ-1C 4.3 15:24:26 10° SE 15:27:17 27° ENE 15:30:09 10° NNE
Cosmos 1812 2.9 15:24:19 10° N 15:28:10 77° W 15:31:59 10° S
Cosmos 2219 4.4 15:23:59 10° NW 15:29:20 46° WSW 15:34:38 10° S
Cosmos 292 Rocket 3.7 15:25:49 10° SSW 15:30:33 80° ESE 15:35:19 10° NNE
Cosmos 1818 3.7 15:30:39 10° NW 15:36:08 84° WSW 15:41:36 10° SSE
Cosmos 1689 Rocket 2.2 15:33:26 10° NNE 15:36:13 46° E 15:38:59 10° S
Timation 1 Rocket 4.4 15:31:43 10° NNW 15:37:43 90° W 15:43:40 10° SSE
Cosmos 1980 Rocket 2.2 15:34:55 10° SSW 15:40:32 73° ESE 15:46:13 10° NNE
Meteor 2-17 Rocket 4.4 15:35:01 10° S 15:41:08 86° E 15:47:16 10° N
YAOGAN 1 2.5 15:37:04 10° SSE 15:41:21 74° ENE 15:45:42 10° N
Okean-O 2.5 15:37:29 10° SSE 15:41:53 72° ENE 15:46:19 10° N
Cosmos 1242 Rocket 3.4 15:38:29 10° NNW 15:41:56 52° W 15:45:24 10° S
COSMO-SKYMED 1 3.9 15:39:11 10° N 15:43:19 44° WNW 15:47:26 10° SW
Cosmos 1500 Rocket 4.3 15:39:24 10° SSW 15:43:40 57° W 15:47:57 10° N
Helios 1A Rocket 3.1 15:39:52 10° SE 15:43:46 46° ENE 15:47:40 10° N
Cosmos 220 Rocket 3.8 15:41:56 10° SSW 15:46:07 73° ESE 15:50:21 10° NNE
Abrixas rocket 3.9 15:47:58 10° S 15:48:54 13° SSE 15:48:54 13° SSE
SL-4 R/B 2.9 15:46:05 10° W 15:49:24 34° NNW 15:52:09 13° NE
FALCON 9 DEB 3.2 15:46:59 10° WSW 15:50:10 66° NW 15:52:27 17° NE
Cosmos 2322 Rocket 3.4 15:46:33 10° SE 15:50:18 19° E 15:51:02 18° E
Cosmos 1302 Rocket 4.4 15:47:10 10° S 15:51:56 38° ESE 15:56:44 10° NE
Sich 1 2.9 15:48:51 10° S 15:53:10 69° E 15:57:33 10° NNE
Cosmos 2082 4.1 15:49:27 10° NNW 15:55:01 66° WSW 16:00:34 10° S
Lacrosse 5 rocket 1.3 15:51:54 10° NW 15:56:19 88° NE 15:59:38 16° SE
Cosmos 44 3.6 15:52:24 10° NW 15:57:53 86° WSW 16:03:15 10° SSE
FALCON 9 DEB 3.8 15:55:46 10° WSW 15:58:50 44° NNW 16:00:49 19° NE
SJ-11-01 4.4 15:54:11 10° S 15:58:50 81° WSW 16:03:33 10° NNW
Cosmos 1867 3.5 15:54:17 10° SSW 15:59:43 89° ESE 16:05:13 10° NNE
USA 234 3.4 15:55:34 10° NE 16:02:06 76° NW 16:08:37 10° WSW
Meteor 1-20 Rocket 4.2 15:57:29 10° S 16:02:45 52° E 16:08:03 10° NNE
Cosmos 1697 Rocket 4.1 15:59:48 10° SW 16:05:05 39° WNW 16:10:23 10° N
CZ-4B R/B 4.3 16:03:05 10° NNW 16:05:08 17° WNW 16:07:11 10° WSW
Cosmos 1707 Rocket 3.5 16:02:02 10° N 16:06:24 62° E 16:10:43 10° SSE
Cosmos 1633 Rocket 3.2 16:04:49 10° SSE 16:09:04 50° E 16:13:21 10° NNE
Cosmos 1110 Rocket 4.4 16:04:06 10° SSW 16:09:22 67° WNW 16:14:42 10° NNE
SL-16 R/B 2.7 16:04:17 10° SSE 16:09:22 35° ESE 16:13:03 17° NE
NOSS 2-1 (E) 4.4 16:08:30 10° NNW 16:13:47 73° NE 16:20:05 15° SE
ERS-2 3.3 16:12:22 10° N 16:15:52 45° WNW 16:19:21 10° SW
Cosmos 1437 2.3 16:13:48 10° N 16:16:41 88° ENE 16:17:25 47° S
Cosmos 2154 Rocket 4.0 16:11:35 10° SSE 16:17:37 53° E 16:23:37 10° NNE
Nadezhda 3 Rocket 4.1 16:13:53 10° N 16:20:04 51° ENE 16:26:13 10° SSE
Ariane Rocket 3.5 16:23:01 35° E 16:23:31 36° ENE 16:28:10 10° N
USA 305 3.8 16:20:37 10° WSW 16:24:43 45° NNW 16:26:59 23° NNE
DMSP B5D2-2 4.0 16:20:32 10° NNE 16:25:45 66° ESE 16:30:56 10° S
SeaSat 1 3.8 16:21:25 10° NNE 16:25:58 38° NW 16:30:30 10° WSW
Cosmos 2074 Rocket 4.0 16:20:26 10° S 16:26:43 84° W 16:33:02 10° N
Cosmos 1610 Rocket 4.4 16:22:45 10° S 16:28:49 65° E 16:34:59 10° NNE
CZ-4 R/B 3.7 16:25:42 10° SSW 16:28:51 24° W 16:32:02 10° NW
Cosmos 2263 Rocket 2.0 16:23:37 10° NNW 16:29:12 74° ENE 16:32:22 26° SE
USA 307 3.9 16:28:26 10° WSW 16:32:31 42° NNW 16:34:24 26° NNE
Meteor 1-14 Rocket 4.4 16:27:15 10° SSE 16:32:35 45° E 16:37:50 10° NNE
USA 306 4.1 16:34:59 10° W 16:38:59 37° NNW 16:40:37 27° NNE
Cosmos 2184 Rocket 4.2 16:33:11 10° SSW 16:39:18 70° W 16:45:29 10° N
USA 308 4.1 16:38:51 10° W 16:42:50 37° NNW 16:44:17 28° NNE
ARGOS 4.4 16:38:38 10° S 16:43:45 42° W 16:48:54 10° NNW
H-2A R/B 4.1 16:39:17 10° SSW 16:43:56 29° W 16:48:40 10° NW
Cosmos 1295 Rocket 4.4 16:38:15 10° S 16:44:31 73° E 16:50:45 10° NNE
Cosmos 1932 4.4 16:38:41 10° SSW 16:45:09 75° ESE 16:49:12 24° NE
Meteor 2-4 Rocket 4.1 16:42:34 10° N 16:47:36 45° ENE 16:47:36 45° ENE
ERBS 4.3 16:46:52 10° SW 16:48:08 21° SW 16:48:08 21° SW
COSMOS 2455 3.6 16:45:25 10° NW 16:51:13 51° WSW 16:56:31 12° S
SJ-6B 3.3 16:53:02 54° N 16:53:02 54° N 16:56:16 10° N
Meteor 1-18 Rocket 4.2 16:46:42 10° N 16:52:40 81° E 16:55:28 33° SSE
MetOp-A 4.1 16:50:52 22° S 16:54:28 80° WSW 16:59:51 10° NNW
GP-B 3.1 16:55:47 78° NNW 16:55:47 78° NNW 16:59:59 10° N
CZ-2C R/B 3.8 16:51:57 10° N 16:57:12 44° WNW 17:02:19 10° SW
Cosmos 1271 Rocket 4.2 16:54:28 10° NNW 16:57:52 34° W 17:00:01 18° SSW
Cosmos 1461 3.2 16:55:55 10° SW 17:00:38 75° NW 17:00:54 72° NNW
Meteor 2-12 Rocket 4.3 16:54:44 10° S 17:00:46 88° W 17:06:54 10° N
Cosmos 2341 Rocket 3.9 16:55:56 10° S 17:02:10 63° E 17:08:23 10° NNE
Cosmos 44 Rocket 4.4 16:58:51 10° NNW 17:02:30 34° NNE 17:02:30 34° NNE
Okean 1 4.2 17:00:09 10° NNW 17:03:06 44° NW 17:03:06 44° NW
Cosmos 962 Rocket 4.3 16:58:11 10° S 17:04:18 74° E 17:10:32 10° N
Gbstr 26 Del rocket 4.2 17:01:34 10° W 17:06:00 44° NNW 17:06:57 40° N
Cosmos 1844 Rocket 4.0 17:02:16 10° N 17:05:23 27° NNE 17:05:23 27° NNE
Cosmos 1862 Rocket 4.2 17:03:12 10° NNW 17:07:36 54° W 17:08:21 48° SW
Cosmos 1486 Rocket 4.0 17:05:15 10° NNW 17:10:03 74° N 17:10:03 74° N
BREEZE-M DEB (TANK) 4.0 17:12:51 10° WSW 17:15:40 30° WSW 17:15:40 30° WSW
Cosmos 2322 Rocket 2.7 17:28:15 10° SW 17:33:02 56° W 17:33:02 56° W
Lacrosse 5 rocket 4.2 17:33:14 10° W 17:34:46 12° WSW 17:35:19 11° SW
Cosmos 968 Rocket 4.5 17:34:37 10° NNW 17:39:07 44° W 17:39:07 44° W
SL-16 R/B 3.6 17:48:15 10° WSW 17:53:24 35° WNW 17:55:08 29° NNW
